Home   Weather   Garland   Past weeks
Flag for USA

Past Weather in Garland, Texas, USA — Yesterday and Last 2 Weeks

Now
75 °F

Broken clouds.


Feels Like: 74 °F
Forecast: 89 / 77 °F
Wind: 3 mph from Southeast

Location: Mesquite Metro Airport

Current Time: Sep 23, 2019 at 8:39:17 am

Latest Report: Sep 23, 2019 at 7:50 am


Visibility: 10 mi

Pressure: 30.05 "Hg

Humidity: 94%

Dew Point: 73 °F

Location of GarlandLocation

Past Weather in Garland — Graph

°F

Garland Temperature Yesterday

Maximum temperature yesterday: 93 °F (at 3:50 pm)
Minimum temperature yesterday: 73 °F (at 6:50 am)
Average temperature yesterday: 80 °F

High & Low Weather Summary for the Past Weeks

 TemperatureHumidityPressure
High97 °F (Sep 8, 4:50 pm)100% (Sep 10, 6:50 am)30.20 "Hg (Sep 10, 6:50 am)
Low68 °F (Sep 8, 6:50 am)27% (Sep 14, 1:50 pm)29.86 "Hg (Sep 18, 4:50 pm)
Average79 °F74%30.02 "Hg
* Reported Sep 8 6:15 am — Sep 23 6:50 am, Garland. Weather by CustomWeather, © 2019

Note: Actual official high and low records may vary slightly from our data, if they occured in-between our weather recording intervals... More about our weather records

Advertising

Garland Weather History for the Previous 24 Hours

Scroll right to see more
 ConditionsComfort  
Time TempWeatherWind HumidityBarometerVisibility
6:50 am
Mon, Sep 23
75 °FOvercast.7 mph94%30.03 "Hg10 mi
6:35 am74 °FPassing clouds.3 mph97%30.03 "Hg10 mi
6:15 am74 °FClear.5 mph97%30.02 "Hg10 mi
5:55 am74 °FClear.6 mph97%30.02 "Hg10 mi
5:35 am74 °FPassing clouds.5 mph97%30.01 "Hg10 mi
4:55 am74 °FClear.6 mph96%30.01 "Hg10 mi
4:35 am75 °FClear.5 mph96%30.01 "Hg10 mi
4:15 am75 °FClear.5 mph94%30.01 "Hg10 mi
3:55 am76 °FPassing clouds.7 mph93%30.00 "Hg10 mi
3:35 am76 °FClear.7 mph93%30.00 "Hg10 mi
3:15 am76 °FClear.6 mph91%30.00 "Hg10 mi
2:55 am76 °FClear.6 mph91%30.00 "Hg10 mi
2:35 am77 °FClear.8 mph89%30.00 "Hg10 mi
2:15 am77 °FClear.7 mph88%30.01 "Hg10 mi
1:55 am77 °FClear.8 mph88%30.01 "Hg10 mi
1:35 am78 °FClear.7 mph86%30.01 "Hg10 mi
1:15 am78 °FClear.7 mph84%30.01 "Hg10 mi
12:55 am79 °FClear.9 mph82%30.01 "Hg10 mi
12:35 am79 °FClear.9 mph82%30.00 "Hg10 mi
12:15 am79 °FClear.8 mph80%30.00 "Hg10 mi
11:55 pm
Sun, Sep 22
80 °FClear.9 mph79%30.00 "Hg10 mi
11:35 pm81 °FClear.8 mph73%30.00 "Hg10 mi
11:15 pm82 °FClear.9 mph69%29.99 "Hg10 mi
10:55 pm81 °FClear.10 mph67%29.99 "Hg10 mi
10:35 pm81 °FClear.12 mph66%29.98 "Hg10 mi
10:15 pm81 °FClear.8 mph66%29.98 "Hg10 mi
9:55 pm81 °FClear.7 mph64%29.98 "Hg10 mi
9:35 pm81 °FClear.7 mph63%29.97 "Hg10 mi
9:15 pm82 °FClear.6 mph60%29.97 "Hg10 mi
7:50 pm84 °FClear.6 mph55%29.94 "Hg10 mi
6:50 pm90 °FSunny.7 mph46%29.93 "Hg10 mi
5:50 pm91 °FScattered clouds.8 mph41%29.94 "Hg10 mi
4:50 pm91 °FBroken clouds.8 mph44%29.94 "Hg10 mi
3:50 pm93 °FBroken clouds.10 mph41%29.95 "Hg10 mi
2:50 pm90 °FBroken clouds.12 mph46%29.97 "Hg10 mi
1:50 pm90 °FBroken clouds.15 mph46%29.99 "Hg10 mi
12:50 pm88 °FPartly sunny.15 mph52%30.02 "Hg10 mi
11:50 am88 °FPartly sunny.16 mph55%30.03 "Hg10 mi
10:50 am84 °FPartly sunny.14 mph66%30.04 "Hg10 mi
9:50 am81 °FPartly sunny.16 mph79%30.03 "Hg10 mi
8:50 am77 °FOvercast.9 mph89%30.04 "Hg10 mi
Weather by CustomWeather, © 2019

See weather overview